2022/08/03 23:33:50+0000,-35.67,-44.88,-32.68,-47.01,-56.30,-58.32
2022/08/03 23:34:43+0000,-35.42,-45.06,-33.07,-49.83,-56.86,-57.36
2022/08/03 23:35:35+0000,-36.56,-45.00,-32.45,-50.56,-57.31,-58.04
2022/08/03 23:36:27+0000,-36.46,-45.11,-32.10,-49.78,-57.12,-58.39
2022/08/03 23:37:19+0000,-36.41,-45.13,-32.34,-51.04,-56.75,-57.70
2022/08/03 23:38:11+0000,-36.21,-45.78,-32.70,-50.58,-56.67,-57.92
2022/08/03 23:39:03+0000,-35.44,-44.56,-32.42,-46.02,-56.89,-58.49
2022/08/03 23:39:55+0000,-35.77,-45.28,-32.20,-45.35,-56.79,-58.18
2022/08/03 23:40:47+0000,-36.47,-45.78,-32.24,-48.54,-56.83,-57.56
2022/08/03 23:41:46+0000,-36.56,-45.37,-32.51,-48.41,-56.86,-58.06
2022/08/03 23:42:38+0000,-36.37,-45.40,-32.76,-48.18,-57.20,-58.03
2022/08/03 23:43:30+0000,-36.07,-45.74,-32.51,-47.92,-56.40,-58.09
2022/08/03 23:44:22+0000,-36.69,-45.06,-32.33,-49.21,-56.88,-57.65
2022/08/03 23:45:14+0000,-37.04,-44.60,-32.78,-47.83,-56.73,-57.88
2022/08/03 23:46:06+0000,-36.46,-44.88,-32.42,-47.06,-56.26,-58.52
2022/08/03 23:46:58+0000,-36.96,-45.06,-32.47,-46.88,-56.80,-57.73
2022/08/03 23:47:50+0000,-36.11,-44.80,-32.51,-50.55,-56.79,-57.74
2022/08/03 23:48:42+0000,-37.28,-44.60,-32.60,-47.18,-57.38,-57.69
2022/08/03 23:49:34+0000,-36.17,-46.08,-32.62,-50.55,-56.63,-58.10
2022/08/03 23:50:26+0000,-35.40,-46.10,-32.77,-47.22,-57.09,-58.59
2022/08/03 23:51:25+0000,-36.22,-46.02,-32.74,-46.47,-56.93,-57.88
2022/08/03 23:52:17+0000,-37.11,-45.06,-32.32,-47.61,-56.76,-57.52
2022/08/03 23:53:09+0000,-37.31,-45.24,-32.77,-48.25,-56.31,-58.01
2022/08/03 23:54:02+0000,-36.66,-44.75,-32.19,-45.94,-56.67,-58.12
2022/08/03 23:54:54+0000,-36.32,-45.54,-32.28,-46.05,-56.62,-58.07
2022/08/03 23:55:46+0000,-36.88,-44.88,-31.85,-47.07,-57.00,-58.01
2022/08/03 23:56:38+0000,-36.33,-44.52,-32.10,-49.45,-57.27,-58.25
2022/08/03 23:57:30+0000,-37.05,-45.08,-31.60,-46.52,-56.84,-57.47
2022/08/03 23:58:22+0000,-36.94,-44.68,-31.95,-47.39,-56.61,-57.43
2022/08/03 23:59:14+0000,-37.39,-45.64,-31.88,-49.62,-56.95,-57.83
2022/08/04 00:00:06+0000,-37.69,-44.97,-32.54,-51.57,-56.64,-57.52
2022/08/04 00:01:07+0000,-36.05,-44.68,-33.22,-49.07,-56.57,-57.99
2022/08/04 00:01:59+0000,-36.81,-45.06,-32.43,-46.72,-56.63,-58.01
2022/08/04 00:02:51+0000,-36.55,-45.86,-32.52,-49.90,-57.14,-57.86
2022/08/04 00:03:43+0000,-36.09,-45.82,-32.68,-47.97,-57.11,-57.67
2022/08/04 00:04:35+0000,-35.72,-45.61,-32.33,-50.16,-56.50,-57.65
2022/08/04 00:05:27+0000,-37.06,-45.56,-32.05,-46.43,-56.69,-57.73
2022/08/04 00:06:20+0000,-36.83,-45.39,-32.11,-46.07,-56.59,-57.29
2022/08/04 00:07:12+0000,-36.71,-44.94,-31.91,-49.01,-56.64,-57.42
2022/08/04 00:08:04+0000,-36.09,-44.40,-32.36,-51.65,-56.77,-57.78
2022/08/04 00:08:56+0000,-36.90,-44.64,-31.99,-48.56,-56.74,-58.23
2022/08/04 00:09:48+0000,-37.06,-45.70,-32.55,-50.70,-56.84,-57.91
2022/08/04 00:10:40+0000,-36.71,-44.76,-32.58,-49.46,-56.82,-57.71
2022/08/04 00:11:39+0000,-37.27,-45.16,-31.94,-48.23,-57.29,-58.39
2022/08/04 00:12:31+0000,-36.54,-45.37,-32.29,-49.13,-56.68,-57.92
2022/08/04 00:13:23+0000,-37.19,-45.15,-32.27,-48.59,-56.61,-58.06
2022/08/04 00:14:15+0000,-35.97,-45.30,-32.78,-49.45,-56.97,-58.09
2022/08/04 00:15:07+0000,-37.14,-45.20,-32.90,-49.95,-56.86,-57.88
2022/08/04 00:15:59+0000,-34.87,-45.56,-31.74,-46.54,-57.14,-58.28
2022/08/04 00:16:51+0000,-35.39,-45.29,-32.02,-45.82,-56.51,-58.15
2022/08/04 00:17:43+0000,-35.84,-45.29,-32.45,-49.75,-57.60,-57.79
2022/08/04 00:18:35+0000,-36.22,-44.83,-32.03,-49.75,-56.83,-58.40
2022/08/04 00:19:27+0000,-36.20,-45.65,-32.54,-46.20,-56.59,-57.81
2022/08/04 00:20:20+0000,-36.45,-45.39,-32.85,-46.26,-57.01,-58.07
2022/08/04 00:21:19+0000,-35.48,-44.75,-32.23,-50.75,-57.42,-57.93
2022/08/04 00:22:11+0000,-36.76,-44.83,-32.18,-48.92,-56.32,-57.75
2022/08/04 00:23:03+0000,-36.32,-45.48,-32.37,-50.83,-56.69,-57.62
2022/08/04 00:23:55+0000,-36.32,-45.17,-32.46,-46.33,-56.99,-57.87
2022/08/04 00:24:47+0000,-36.73,-44.51,-32.06,-49.50,-56.53,-57.79
2022/08/04 00:25:39+0000,-36.36,-45.13,-32.11,-49.10,-56.64,-57.83
2022/08/04 00:26:31+0000,-36.25,-45.29,-32.44,-45.88,-57.19,-57.48
2022/08/04 00:27:23+0000,-35.97,-43.88,-32.66,-46.14,-57.29,-57.71
2022/08/04 00:28:15+0000,-35.06,-44.87,-32.23,-47.44,-56.28,-57.99
2022/08/04 00:29:07+0000,-36.19,-45.23,-32.76,-47.46,-56.85,-58.09
2022/08/04 00:29:59+0000,-35.92,-44.66,-33.01,-47.25,-56.45,-58.12
2022/08/04 00:30:51+0000,-35.19,-45.52,-32.35,-49.46,-56.80,-58.39
2022/08/04 00:31:51+0000,-34.71,-45.33,-32.56,-45.73,-56.52,-58.20
2022/08/04 00:32:43+0000,-35.26,-46.09,-32.55,-47.37,-56.53,-57.60
2022/08/04 00:33:35+0000,-35.59,-45.76,-32.56,-50.16,-56.69,-57.87
2022/08/04 00:34:27+0000,-36.86,-44.91,-32.49,-45.50,-56.49,-57.37
2022/08/04 00:35:19+0000,-36.11,-44.42,-32.34,-51.00,-56.42,-57.57
2022/08/04 00:36:11+0000,-35.86,-44.73,-32.14,-48.65,-56.95,-58.31
2022/08/04 00:37:03+0000,-36.20,-45.55,-32.24,-50.81,-57.12,-57.69
2022/08/04 00:37:55+0000,-35.31,-45.03,-32.25,-48.77,-56.68,-57.71
2022/08/04 00:38:47+0000,-35.59,-45.70,-32.24,-48.78,-56.88,-57.55
2022/08/04 00:39:39+0000,-35.36,-45.74,-32.20,-48.72,-56.92,-57.84
2022/08/04 00:40:31+0000,-35.58,-45.26,-32.08,-45.43,-57.06,-57.79
2022/08/04 00:41:30+0000,-35.68,-44.39,-32.61,-48.15,-56.67,-58.01
2022/08/04 00:42:22+0000,-36.58,-45.06,-31.52,-48.72,-56.05,-58.02
2022/08/04 00:43:14+0000,-35.68,-45.13,-32.15,-48.81,-57.71,-57.76
2022/08/04 00:44:07+0000,-34.52,-44.79,-31.91,-48.93,-56.54,-57.54
2022/08/04 00:44:59+0000,-35.24,-45.44,-32.27,-45.45,-56.73,-57.79
2022/08/04 00:45:51+0000,-36.21,-44.84,-32.51,-48.41,-56.75,-57.67
2022/08/04 00:46:43+0000,-34.29,-46.44,-32.69,-49.70,-56.52,-57.88
2022/08/04 00:47:35+0000,-35.86,-44.56,-32.26,-50.13,-56.64,-57.52
2022/08/04 00:48:27+0000,-36.44,-44.88,-32.31,-50.19,-56.04,-58.15
2022/08/04 00:49:19+0000,-35.18,-45.30,-32.77,-50.48,-56.90,-57.69
2022/08/04 00:50:11+0000,-35.29,-45.23,-32.36,-48.02,-56.25,-57.95
2022/08/04 00:51:10+0000,-35.90,-45.43,-32.48,-47.70,-56.48,-57.41
2022/08/04 00:52:02+0000,-36.13,-44.70,-32.44,-45.59,-56.58,-57.74
2022/08/04 00:52:54+0000,-34.60,-44.73,-32.48,-45.95,-56.87,-57.99
2022/08/04 00:53:46+0000,-35.25,-44.73,-32.63,-48.15,-56.27,-57.96
2022/08/04 00:54:38+0000,-34.36,-44.81,-32.41,-48.32,-57.61,-57.23
2022/08/04 00:55:30+0000,-35.57,-45.09,-32.11,-44.98,-56.46,-57.64
2022/08/04 00:56:22+0000,-36.01,-44.76,-32.06,-44.96,-56.44,-57.58
2022/08/04 00:57:14+0000,-35.12,-44.69,-32.24,-49.02,-56.47,-57.36
2022/08/04 00:58:06+0000,-35.33,-45.59,-32.33,-48.42,-56.99,-58.16
2022/08/04 00:58:58+0000,-35.36,-45.38,-32.41,-45.76,-56.44,-57.72
2022/08/04 00:59:50+0000,-35.77,-44.98,-32.27,-45.85,-56.45,-58.19
2022/08/04 01:00:42+0000,-36.77,-46.49,-32.73,-47.84,-56.30,-57.68
2022/08/04 01:01:42+0000,-35.64,-44.73,-32.44,-47.44,-56.40,-58.07
2022/08/04 01:02:34+0000,-36.39,-44.95,-32.13,-51.22,-56.71,-58.08
2022/08/04 01:03:26+0000,-37.20,-46.00,-33.06,-46.32,-56.29,-58.34
2022/08/04 01:04:18+0000,-36.15,-45.12,-32.42,-51.24,-56.76,-57.98
2022/08/04 01:05:10+0000,-36.19,-45.60,-32.11,-49.11,-56.37,-57.84
2022/08/04 01:06:02+0000,-35.28,-44.54,-32.20,-51.36,-56.37,-57.56
2022/08/04 01:06:54+0000,-35.68,-45.09,-32.62,-44.69,-56.82,-57.80
2022/08/04 01:07:46+0000,-35.49,-45.40,-32.80,-48.19,-56.67,-57.75
2022/08/04 01:08:38+0000,-36.04,-44.60,-32.28,-46.91,-56.37,-58.57
2022/08/04 01:09:30+0000,-35.30,-46.09,-32.88,-47.76,-56.72,-57.83
2022/08/04 01:10:23+0000,-35.86,-45.52,-32.45,-46.01,-56.34,-57.89
2022/08/04 01:11:22+0000,-37.56,-45.21,-31.89,-46.06,-56.62,-58.20
2022/08/04 01:12:14+0000,-37.31,-45.39,-33.06,-46.33,-56.77,-58.24
2022/08/04 01:13:06+0000,-36.16,-46.05,-32.31,-47.72,-56.83,-57.82
2022/08/04 01:13:58+0000,-35.56,-45.04,-32.34,-45.71,-57.20,-58.31
2022/08/04 01:14:50+0000,-36.21,-45.72,-32.02,-46.34,-56.86,-57.99
2022/08/04 01:15:42+0000,-35.01,-45.50,-32.54,-47.49,-56.71,-57.80
2022/08/04 01:16:34+0000,-36.84,-44.83,-32.13,-50.37,-56.10,-58.47
2022/08/04 01:17:26+0000,-36.68,-45.91,-31.63,-45.87,-56.99,-57.55
2022/08/04 01:18:18+0000,-36.45,-45.57,-32.14,-49.89,-56.34,-58.20
2022/08/04 01:19:10+0000,-35.40,-45.53,-31.98,-47.88,-55.97,-58.16
2022/08/04 01:20:02+0000,-35.31,-44.52,-31.88,-51.05,-56.98,-57.78
2022/08/04 01:21:02+0000,-35.66,-45.58,-31.56,-47.68,-56.28,-58.72
2022/08/04 01:21:54+0000,-36.04,-45.59,-32.74,-48.72,-55.84,-58.10
2022/08/04 01:22:46+0000,-35.98,-45.53,-32.48,-49.28,-56.16,-58.65
2022/08/04 01:23:38+0000,-36.31,-45.05,-32.67,-48.57,-56.57,-58.91
2022/08/04 01:24:30+0000,-36.07,-44.98,-32.77,-48.80,-56.47,-58.84
2022/08/04 01:25:22+0000,-36.01,-46.18,-32.39,-49.12,-54.93,-58.72
2022/08/04 01:26:14+0000,-35.75,-45.98,-32.30,-47.11,-56.31,-58.49
2022/08/04 01:27:06+0000,-35.95,-46.48,-31.78,-48.06,-56.29,-58.78
2022/08/04 01:27:58+0000,-36.90,-44.61,-32.06,-45.18,-55.97,-58.69
2022/08/04 01:28:50+0000,-36.32,-46.51,-31.85,-45.68,-56.40,-58.45
2022/08/04 01:29:42+0000,-35.01,-45.12,-32.59,-47.77,-55.47,-58.14
2022/08/04 01:30:34+0000,-35.65,-45.63,-32.00,-50.93,-56.22,-58.45
2022/08/04 01:31:33+0000,-35.55,-45.77,-31.76,-51.32,-56.12,-58.68
2022/08/04 01:32:25+0000,-34.67,-44.58,-32.06,-46.16,-55.92,-58.55
2022/08/04 01:33:17+0000,-35.20,-45.40,-31.50,-47.92,-55.52,-58.28
2022/08/04 01:34:09+0000,-34.32,-45.16,-32.04,-47.07,-56.29,-58.33
2022/08/04 01:35:01+0000,-35.52,-46.13,-31.79,-48.97,-55.63,-58.50
2022/08/04 01:35:54+0000,-33.82,-45.42,-31.81,-47.87,-56.17,-58.21
2022/08/04 01:36:46+0000,-34.74,-45.00,-32.13,-47.02,-55.99,-58.35
2022/08/04 01:37:38+0000,-35.02,-45.56,-31.99,-47.45,-55.33,-58.34
2022/08/04 01:38:30+0000,-34.84,-45.98,-31.64,-45.71,-55.67,-58.91
2022/08/04 01:39:22+0000,-34.22,-45.55,-31.53,-45.45,-55.62,-58.43
2022/08/04 01:40:14+0000,-34.11,-46.08,-31.87,-47.71,-55.89,-58.54
2022/08/04 01:41:14+0000,-35.14,-45.81,-32.25,-47.99,-55.24,-58.23
2022/08/04 01:42:06+0000,-35.22,-45.41,-31.70,-49.59,-55.73,-58.25
2022/08/04 01:42:58+0000,-35.00,-44.29,-31.90,-45.91,-56.19,-58.67
2022/08/04 01:43:50+0000,-35.63,-44.82,-32.01,-51.07,-55.25,-58.99
2022/08/04 01:44:42+0000,-35.16,-44.84,-31.73,-49.83,-54.83,-58.97
2022/08/04 01:45:34+0000,-35.48,-45.92,-31.80,-51.41,-55.99,-59.09
2022/08/04 01:46:26+0000,-35.00,-46.52,-31.84,-46.18,-56.07,-58.53
2022/08/04 01:47:18+0000,-36.84,-45.61,-31.94,-51.03,-54.91,-58.60
2022/08/04 01:48:10+0000,-35.86,-46.02,-31.51,-50.67,-55.74,-59.06
2022/08/04 01:49:02+0000,-34.84,-45.15,-32.14,-45.47,-55.82,-58.39
2022/08/04 01:49:54+0000,-35.94,-46.01,-31.97,-45.84,-56.17,-58.52
2022/08/04 01:50:46+0000,-35.75,-45.12,-31.98,-50.21,-55.65,-59.24
2022/08/04 01:51:45+0000,-36.18,-44.15,-32.12,-49.31,-55.78,-59.05
2022/08/04 01:52:37+0000,-35.96,-44.47,-32.06,-49.30,-55.91,-58.03
2022/08/04 01:53:29+0000,-35.20,-44.62,-32.04,-48.93,-55.23,-58.74
2022/08/04 01:54:21+0000,-34.60,-44.63,-31.93,-45.77,-55.81,-58.67
2022/08/04 01:55:13+0000,-34.94,-44.81,-32.12,-49.24,-55.18,-58.23
2022/08/04 01:56:05+0000,-35.33,-45.23,-32.31,-49.34,-55.11,-58.58
2022/08/04 01:56:57+0000,-35.83,-43.94,-31.86,-45.93,-54.79,-58.42
2022/08/04 01:57:49+0000,-34.71,-45.50,-31.43,-51.57,-55.05,-58.19
2022/08/04 01:58:42+0000,-34.86,-44.73,-31.74,-47.02,-55.28,-58.32
2022/08/04 01:59:34+0000,-35.21,-45.39,-31.72,-51.62,-55.88,-58.90
2022/08/04 02:00:26+0000,-35.08,-45.05,-31.47,-49.33,-55.43,-58.00
2022/08/04 02:01:28+0000,-35.31,-45.23,-31.70,-49.37,-55.50,-58.66
2022/08/04 02:02:20+0000,-35.24,-44.46,-31.88,-49.70,-54.59,-58.81
2022/08/04 02:03:12+0000,-35.60,-45.73,-31.85,-49.20,-54.75,-58.07
2022/08/04 02:04:04+0000,-36.31,-44.42,-31.69,-51.33,-55.24,-58.22
2022/08/04 02:04:56+0000,-35.41,-44.26,-31.97,-50.10,-55.00,-58.62
2022/08/04 02:05:48+0000,-34.71,-44.54,-32.00,-51.23,-54.84,-58.59
2022/08/04 02:06:40+0000,-36.67,-45.39,-31.52,-48.28,-54.70,-58.53
2022/08/04 02:07:32+0000,-34.90,-44.17,-31.81,-51.71,-55.30,-58.57
2022/08/04 02:08:24+0000,-35.66,-45.32,-32.24,-50.10,-55.07,-58.35
2022/08/04 02:09:16+0000,-35.49,-44.35,-31.48,-47.92,-54.91,-58.68
2022/08/04 02:10:09+0000,-35.09,-44.56,-31.80,-49.01,-54.62,-58.90
2022/08/04 02:11:08+0000,-34.68,-45.58,-31.86,-46.82,-54.92,-58.31
2022/08/04 02:12:00+0000,-35.15,-44.52,-31.79,-48.39,-55.18,-58.36
2022/08/04 02:12:52+0000,-35.52,-43.33,-31.45,-50.00,-54.40,-58.73
2022/08/04 02:13:44+0000,-35.67,-45.12,-32.06,-45.04,-55.06,-58.40
2022/08/04 02:14:36+0000,-35.41,-45.41,-31.38,-48.45,-54.88,-58.56
2022/08/04 02:15:28+0000,-34.15,-43.51,-31.95,-49.92,-54.91,-58.73
2022/08/04 02:16:20+0000,-36.27,-45.71,-31.71,-49.66,-54.91,-58.32
2022/08/04 02:17:12+0000,-34.50,-46.08,-31.69,-49.28,-55.29,-58.99
2022/08/04 02:18:04+0000,-35.58,-44.23,-31.89,-50.76,-55.07,-58.71
2022/08/04 02:18:56+0000,-37.32,-44.53,-31.87,-48.43,-55.02,-58.39
2022/08/04 02:19:49+0000,-36.24,-44.68,-32.26,-51.61,-54.50,-58.96
2022/08/04 02:20:41+0000,-36.19,-45.08,-31.52,-49.36,-54.98,-58.40
2022/08/04 02:21:40+0000,-35.55,-45.56,-31.64,-50.22,-54.75,-58.38
2022/08/04 02:22:32+0000,-36.72,-44.18,-32.01,-49.42,-55.30,-58.55
2022/08/04 02:23:24+0000,-34.97,-45.40,-31.77,-46.73,-55.33,-58.81
2022/08/04 02:24:16+0000,-35.05,-44.73,-31.67,-48.21,-54.75,-58.18
2022/08/04 02:25:08+0000,-36.51,-45.85,-31.86,-47.87,-54.85,-58.15
2022/08/04 02:26:00+0000,-36.15,-45.26,-32.55,-47.08,-54.20,-58.21
2022/08/04 02:26:52+0000,-33.79,-45.84,-32.65,-48.85,-54.21,-58.15
2022/08/04 02:27:44+0000,-36.12,-44.45,-31.44,-47.95,-54.84,-58.48
2022/08/04 02:28:36+0000,-36.00,-46.30,-32.55,-47.86,-54.43,-58.39
2022/08/04 02:29:28+0000,-34.69,-44.62,-32.13,-50.14,-54.73,-57.99
2022/08/04 02:30:21+0000,-34.92,-45.32,-31.30,-50.01,-54.63,-58.64
2022/08/04 02:31:20+0000,-36.39,-44.88,-31.97,-47.94,-55.50,-58.56
2022/08/04 02:32:12+0000,-35.08,-44.97,-31.65,-49.87,-54.90,-58.45
2022/08/04 02:33:04+0000,-34.65,-44.09,-31.71,-51.82,-54.69,-58.63
2022/08/04 02:33:56+0000,-35.07,-45.41,-31.97,-46.39,-54.84,-58.31
2022/08/04 02:34:48+0000,-35.11,-44.52,-31.49,-50.75,-54.61,-58.55
2022/08/04 02:35:40+0000,-34.82,-46.33,-31.90,-48.35,-55.25,-58.65
2022/08/04 02:36:32+0000,-35.58,-44.93,-31.75,-45.96,-54.94,-58.81
2022/08/04 02:37:24+0000,-34.47,-45.45,-31.93,-45.23,-55.03,-58.28
2022/08/04 02:38:17+0000,-35.12,-46.04,-31.36,-49.51,-54.77,-58.18
2022/08/04 02:39:09+0000,-35.45,-45.89,-31.77,-48.72,-54.80,-58.92
2022/08/04 02:40:01+0000,-34.45,-45.60,-31.80,-46.68,-54.42,-58.76
2022/08/04 02:41:01+0000,-34.35,-45.07,-32.02,-48.61,-54.86,-58.76
2022/08/04 02:41:53+0000,-34.01,-45.73,-31.74,-46.04,-54.82,-58.36
2022/08/04 02:42:45+0000,-35.68,-45.47,-32.44,-48.51,-55.54,-58.17
2022/08/04 02:43:37+0000,-35.36,-45.74,-31.69,-48.24,-55.06,-58.24
2022/08/04 02:44:29+0000,-34.31,-46.22,-31.29,-46.14,-54.18,-58.55
2022/08/04 02:45:21+0000,-35.28,-45.64,-32.45,-51.07,-54.80,-58.07
2022/08/04 02:46:13+0000,-35.70,-45.78,-31.94,-47.28,-54.71,-57.95
2022/08/04 02:47:05+0000,-35.07,-44.52,-31.94,-51.55,-53.89,-58.62
2022/08/04 02:47:57+0000,-35.74,-46.35,-31.40,-48.11,-54.62,-58.28
2022/08/04 02:48:49+0000,-36.07,-44.71,-32.22,-51.49,-54.78,-58.69
2022/08/04 02:49:41+0000,-35.60,-44.48,-31.76,-48.29,-55.38,-58.72
2022/08/04 02:50:33+0000,-34.62,-45.85,-31.91,-49.24,-54.77,-58.58
2022/08/04 02:51:33+0000,-34.89,-45.14,-31.66,-49.20,-54.21,-57.98
2022/08/04 02:52:25+0000,-35.20,-45.11,-31.32,-48.41,-55.29,-58.24
2022/08/04 02:53:17+0000,-35.60,-46.04,-31.94,-48.77,-55.09,-58.07
2022/08/04 02:54:09+0000,-36.13,-44.91,-31.77,-48.39,-55.00,-58.90
2022/08/04 02:55:01+0000,-35.30,-46.13,-31.76,-47.41,-54.64,-58.50
2022/08/04 02:55:53+0000,-35.23,-45.11,-32.10,-48.94,-55.48,-58.33
2022/08/04 02:56:45+0000,-35.54,-45.36,-31.44,-48.59,-54.88,-58.18
2022/08/04 02:57:37+0000,-35.56,-44.85,-32.13,-47.20,-54.38,-57.59
2022/08/04 02:58:29+0000,-34.22,-45.40,-31.71,-49.38,-54.04,-58.55
2022/08/04 02:59:21+0000,-35.43,-45.18,-31.76,-48.91,-54.21,-58.54
2022/08/04 03:00:14+0000,-36.61,-44.65,-31.77,-49.00,-54.18,-57.78
2022/08/04 03:01:14+0000,-35.85,-44.10,-31.56,-47.22,-53.65,-58.07
2022/08/04 03:02:06+0000,-34.73,-46.81,-32.20,-46.10,-53.96,-57.84
2022/08/04 03:02:58+0000,-36.79,-46.79,-32.18,-47.38,-55.05,-57.98
2022/08/04 03:03:50+0000,-35.80,-45.77,-31.53,-48.29,-54.03,-58.81
2022/08/04 03:04:42+0000,-36.05,-45.93,-31.72,-45.28,-54.40,-58.84
2022/08/04 03:05:34+0000,-36.02,-46.22,-31.36,-51.49,-54.06,-58.01
2022/08/04 03:06:26+0000,-35.54,-45.68,-31.46,-49.96,-53.92,-58.69
2022/08/04 03:07:18+0000,-35.33,-44.89,-31.65,-51.65,-54.32,-58.32
2022/08/04 03:08:10+0000,-35.94,-45.73,-31.74,-46.97,-54.91,-58.51
2022/08/04 03:09:02+0000,-36.17,-45.69,-31.46,-48.48,-54.43,-58.27
2022/08/04 03:09:54+0000,-36.91,-46.32,-32.04,-47.90,-54.71,-59.12
2022/08/04 03:10:46+0000,-36.73,-46.15,-32.01,-47.15,-54.73,-58.07
2022/08/04 03:11:45+0000,-34.99,-46.04,-32.09,-48.19,-54.12,-58.69
2022/08/04 03:12:37+0000,-35.49,-46.20,-32.09,-47.69,-55.16,-58.57
2022/08/04 03:13:29+0000,-36.34,-46.34,-31.69,-48.88,-55.18,-58.11
2022/08/04 03:14:21+0000,-36.29,-47.36,-31.47,-48.31,-54.95,-58.08
2022/08/04 03:15:13+0000,-35.98,-45.07,-30.89,-48.18,-55.04,-58.35
2022/08/04 03:16:05+0000,-36.11,-46.60,-32.25,-47.66,-55.05,-57.82
2022/08/04 03:16:57+0000,-35.92,-45.63,-32.34,-49.57,-55.22,-58.37
2022/08/04 03:17:49+0000,-34.81,-45.64,-31.92,-45.95,-54.55,-58.09
2022/08/04 03:18:41+0000,-32.96,-45.58,-31.72,-47.84,-54.40,-57.92
2022/08/04 03:19:34+0000,-35.78,-47.21,-31.69,-52.14,-55.44,-58.00
2022/08/04 03:20:26+0000,-35.19,-48.17,-32.25,-47.98,-55.07,-58.43
2022/08/04 03:21:27+0000,-35.07,-47.28,-32.36,-48.72,-55.10,-58.47
2022/08/04 03:22:20+0000,-34.36,-46.00,-31.91,-51.58,-54.14,-58.81
2022/08/04 03:23:12+0000,-35.91,-45.67,-32.00,-47.22,-55.32,-57.81
2022/08/04 03:24:04+0000,-35.84,-46.90,-32.16,-52.06,-54.36,-58.09
2022/08/04 03:24:56+0000,-35.53,-46.71,-32.28,-49.76,-55.34,-58.03
2022/08/04 03:25:48+0000,-35.15,-44.16,-31.86,-48.88,-54.57,-57.83
2022/08/04 03:26:40+0000,-35.69,-44.16,-31.57,-48.17,-54.65,-57.98
2022/08/04 03:27:32+0000,-35.99,-46.68,-32.15,-48.91,-54.36,-57.41
2022/08/04 03:28:24+0000,-35.30,-45.76,-31.64,-49.10,-53.99,-58.68
2022/08/04 03:29:16+0000,-36.14,-44.67,-32.00,-48.86,-54.94,-58.04
2022/08/04 03:30:08+0000,-34.31,-45.05,-32.33,-49.09,-55.02,-57.91
2022/08/04 03:31:07+0000,-34.64,-46.61,-32.72,-48.67,-54.22,-58.39
2022/08/04 03:31:59+0000,-35.47,-45.66,-32.15,-48.66,-54.28,-58.56
2022/08/04 03:32:51+0000,-35.07,-46.43,-31.87,-49.82,-54.08,-58.63
2022/08/04 03:33:43+0000,-35.03,-45.17,-32.55,-48.74,-54.53,-58.49
2022/08/04 03:34:35+0000,-34.58,-44.98,-31.74,-48.73,-54.70,-57.84
2022/08/04 03:35:28+0000,-34.25,-46.55,-32.26,-49.52,-54.67,-58.00
2022/08/04 03:36:20+0000,-35.24,-45.62,-32.27,-50.70,-54.20,-57.78
2022/08/04 03:37:12+0000,-36.18,-45.20,-32.42,-45.42,-54.57,-58.43
2022/08/04 03:38:04+0000,-35.17,-45.85,-31.46,-50.95,-54.34,-57.88
2022/08/04 03:38:56+0000,-35.24,-45.23,-31.68,-49.16,-54.14,-58.00
2022/08/04 03:39:48+0000,-35.04,-44.81,-32.33,-48.98,-55.20,-58.28
2022/08/04 03:40:40+0000,-34.38,-44.74,-32.36,-48.49,-54.59,-57.34
2022/08/04 03:41:39+0000,-35.43,-46.02,-32.32,-47.74,-54.95,-58.19
2022/08/04 03:42:31+0000,-35.21,-46.22,-31.38,-50.02,-54.85,-58.03
2022/08/04 03:43:23+0000,-34.87,-46.06,-31.98,-49.05,-54.62,-58.25
2022/08/04 03:44:15+0000,-34.94,-46.14,-31.72,-49.03,-55.33,-57.67
2022/08/04 03:45:07+0000,-32.90,-47.90,-32.23,-49.60,-54.42,-58.11
2022/08/04 03:45:59+0000,-35.46,-46.99,-32.23,-49.43,-54.55,-57.77
2022/08/04 03:46:52+0000,-36.25,-46.46,-31.94,-49.95,-55.04,-57.69
2022/08/04 03:47:44+0000,-34.39,-45.09,-31.94,-50.47,-55.14,-58.27
2022/08/04 03:48:36+0000,-35.47,-46.23,-31.72,-51.14,-54.72,-58.40
2022/08/04 03:49:28+0000,-35.52,-45.70,-32.24,-48.78,-54.74,-58.04
2022/08/04 03:50:20+0000,-35.10,-44.69,-31.60,-51.80,-55.56,-57.75
2022/08/04 03:51:20+0000,-34.21,-46.04,-31.88,-51.04,-54.56,-57.67
2022/08/04 03:52:12+0000,-34.52,-43.96,-32.01,-48.41,-54.69,-58.40
2022/08/04 03:53:04+0000,-36.24,-45.42,-31.63,-49.25,-54.96,-57.25
2022/08/04 03:53:56+0000,-35.92,-45.72,-31.43,-49.02,-55.36,-58.16
2022/08/04 03:54:48+0000,-34.50,-44.73,-31.63,-49.13,-54.77,-58.01
2022/08/04 03:55:40+0000,-34.59,-44.95,-32.37,-49.38,-54.95,-57.62
2022/08/04 03:56:32+0000,-35.17,-46.14,-32.47,-47.68,-54.37,-57.62
2022/08/04 03:57:24+0000,-35.12,-45.16,-32.42,-48.16,-54.71,-58.33
2022/08/04 03:58:16+0000,-34.90,-45.65,-32.25,-46.48,-54.95,-58.36
2022/08/04 03:59:08+0000,-35.00,-45.45,-32.04,-49.64,-54.82,-58.47
2022/08/04 04:00:00+0000,-36.07,-45.04,-32.14,-47.75,-54.34,-57.68
2022/08/04 04:01:06+0000,-34.17,-45.25,-31.79,-50.37,-54.63,-57.83
2022/08/04 04:01:58+0000,-35.30,-46.42,-32.09,-46.86,-54.38,-57.74
2022/08/04 04:02:50+0000,-35.22,-46.15,-32.39,-50.45,-53.96,-58.32
2022/08/04 04:03:42+0000,-35.73,-45.44,-32.11,-50.15,-54.50,-57.87
2022/08/04 04:04:34+0000,-33.85,-46.04,-32.28,-51.62,-54.74,-58.12
2022/08/04 04:05:26+0000,-35.98,-45.44,-32.26,-47.87,-54.44,-57.35
2022/08/04 04:06:18+0000,-34.65,-45.40,-32.09,-50.76,-54.42,-57.41
2022/08/04 04:07:10+0000,-35.74,-45.07,-32.02,-50.95,-54.47,-58.07
2022/08/04 04:08:02+0000,-35.44,-45.19,-31.42,-48.05,-55.21,-58.11
2022/08/04 04:08:54+0000,-35.53,-46.35,-32.05,-48.79,-54.19,-57.64
2022/08/04 04:09:46+0000,-35.42,-44.77,-32.41,-50.05,-54.20,-57.98
2022/08/04 04:10:38+0000,-36.12,-45.17,-31.90,-51.09,-53.92,-57.65
2022/08/04 04:11:37+0000,-35.89,-46.10,-32.22,-50.94,-54.56,-57.99
2022/08/04 04:12:29+0000,-36.33,-45.75,-32.38,-46.22,-54.10,-57.54
2022/08/04 04:13:21+0000,-36.29,-46.02,-31.97,-46.47,-54.31,-57.81
2022/08/04 04:14:13+0000,-36.78,-47.19,-31.97,-50.06,-54.27,-57.81
2022/08/04 04:15:05+0000,-35.61,-47.22,-31.94,-49.46,-54.51,-57.69
2022/08/04 04:15:57+0000,-35.04,-45.08,-32.33,-46.96,-54.33,-57.99
2022/08/04 04:16:49+0000,-35.33,-46.68,-32.33,-51.13,-54.25,-57.29
2022/08/04 04:17:41+0000,-36.18,-45.17,-31.98,-50.44,-54.45,-57.44
2022/08/04 04:18:33+0000,-35.14,-45.59,-32.04,-51.24,-54.25,-57.73
2022/08/04 04:19:25+0000,-35.41,-45.86,-32.22,-49.81,-53.99,-57.44
2022/08/04 04:20:18+0000,-35.11,-46.41,-31.52,-52.05,-54.38,-57.54
2022/08/04 04:21:17+0000,-35.93,-46.40,-31.48,-47.12,-54.11,-57.74
2022/08/04 04:22:09+0000,-35.02,-46.73,-32.08,-47.45,-54.25,-57.78
2022/08/04 04:23:01+0000,-34.57,-44.88,-32.06,-43.57,-53.98,-58.08
2022/08/04 04:23:53+0000,-35.54,-44.33,-30.96,-42.36,-54.14,-58.11
2022/08/04 04:24:45+0000,-37.14,-47.21,-31.67,-51.08,-53.84,-57.14
2022/08/04 04:25:37+0000,-35.51,-48.26,-31.99,-47.80,-54.26,-57.67
2022/08/04 04:26:29+0000,-36.49,-46.41,-31.82,-48.80,-53.69,-58.10
2022/08/04 04:27:21+0000,-35.14,-47.49,-31.99,-44.27,-53.60,-57.73
2022/08/04 04:28:13+0000,-35.32,-46.38,-32.33,-49.06,-54.37,-58.08
2022/08/04 04:29:05+0000,-34.95,-47.65,-32.09,-50.39,-54.36,-57.46
2022/08/04 04:29:57+0000,-36.22,-46.46,-32.17,-47.03,-54.36,-57.52
2022/08/04 04:30:49+0000,-36.16,-45.81,-32.02,-51.44,-53.40,-57.90
2022/08/04 04:31:49+0000,-36.00,-45.24,-31.76,-51.61,-54.18,-58.17
2022/08/04 04:32:41+0000,-37.19,-44.32,-31.21,-48.72,-54.28,-57.62
2022/08/04 04:33:33+0000,-34.95,-45.98,-32.04,-47.91,-54.46,-57.64
2022/08/04 04:34:25+0000,-34.45,-46.37,-31.77,-49.62,-54.50,-57.91
2022/08/04 04:35:17+0000,-34.18,-43.71,-31.54,-49.75,-54.51,-57.82
2022/08/04 04:36:09+0000,-36.01,-44.60,-32.04,-49.19,-54.49,-57.82
2022/08/04 04:37:01+0000,-36.77,-45.43,-32.51,-48.97,-54.12,-57.88
2022/08/04 04:37:53+0000,-36.57,-46.49,-31.81,-48.60,-54.55,-57.98
2022/08/04 04:38:45+0000,-35.93,-42.75,-31.78,-48.76,-54.05,-57.38
2022/08/04 04:39:37+0000,-35.20,-45.45,-31.53,-47.43,-54.43,-57.49
2022/08/04 04:40:29+0000,-34.62,-46.25,-32.11,-47.76,-54.61,-57.72
2022/08/04 04:41:29+0000,-34.66,-45.42,-32.11,-48.72,-53.46,-58.11
2022/08/04 04:42:21+0000,-35.38,-46.35,-31.79,-48.47,-53.64,-57.44
2022/08/04 04:43:13+0000,-35.82,-43.58,-31.96,-49.79,-54.47,-57.89
2022/08/04 04:44:05+0000,-36.29,-45.46,-32.30,-50.39,-54.05,-57.84
2022/08/04 04:44:57+0000,-36.02,-46.27,-31.81,-45.45,-54.11,-57.86
2022/08/04 04:45:49+0000,-36.80,-44.14,-31.78,-51.63,-54.29,-57.42
2022/08/04 04:46:41+0000,-35.90,-45.16,-31.81,-49.71,-54.22,-57.27
2022/08/04 04:47:33+0000,-35.20,-45.96,-31.57,-49.58,-53.84,-57.10